Overview Statistics Trail Chart Weather Telemetry Raw packets
 

This is the latest recevied weather packets stored in our database for station/object PA1CD-13. If no packets are shown the sender has not sent any weather packets the latest 10 day(s).

<< 1 2 3 4 5 6 >>
Time Temp. Humidity Pressure Rain* Wind** Luminosity Snow
1788614164 19.44° C 60% 1019.7 hPa 0 mm - 257 W/m² -
1788614077 19.44° C 60% 1019.5 hPa 0 mm - 288 W/m² -
1788613923 19.44° C 58% 1019.6 hPa 0 mm - 735 W/m² -
1788613804 20° C 58% 1019.5 hPa 0 mm - 735 W/m² -
1788613684 20° C 58% 1019.5 hPa 0 mm - 318 W/m² -
1788613564 20° C 59% 1019.4 hPa 0 mm - 199 W/m² -
1788613443 20° C 60% 1019.3 hPa 0 mm - 255 W/m² -
1788613323 20° C 60% 1019.4 hPa 0 mm - 390 W/m² -
1788613208 20° C 60% 1019.4 hPa 0 mm - 390 W/m² -
1788613086 20° C 61% 1019.4 hPa 0 mm - 730 W/m² -
1788612965 20° C 61% 1019.3 hPa 0 mm - 672 W/m² -
1788612844 20° C 62% 1019.3 hPa 0 mm - 684 W/m² -
1788612725 19.44° C 62% 1019.3 hPa 0 mm - 696 W/m² -
1788612605 19.44° C 62% 1019.2 hPa 0 mm - 696 W/m² -
1788612485 19.44° C 62% 1019.2 hPa 0 mm - 665 W/m² -
1788612364 19.44° C 62% 1019.2 hPa 0 mm - 652 W/m² -
1788612244 19.44° C 62% 1019.2 hPa 0 mm - 672 W/m² -
1788612124 19.44° C 62% 1019.1 hPa 0 mm - 672 W/m² -
1788612006 19.44° C 62% 1019.2 hPa 0 mm - 670 W/m² -
1788611884 19.44° C 61% 1019.2 hPa 0 mm - 299 W/m² -
1788611764 19.44° C 63% 1019.2 hPa 0 mm - 709 W/m² -
1788611644 19.44° C 63% 1019.2 hPa 0 mm - 169 W/m² -
1788611525 19.44° C 63% 1019.3 hPa 0 mm - 788 W/m² -
1788611406 19.44° C 63% 1019.1 hPa 0 mm - 788 W/m² -
1788611284 19.44° C 63% 1019.2 hPa 0 mm - 209 W/m² -

* Rain latest hour (hover to see other rain measurements)
** Current wind speed in m/s (hover to see current wind gust speed)